Location: Unspecified
(0.0000°N, 0.0000°E)
Time: 22:15:16
(UTC+02:00)

CZ-4B DEB - Visible Passes

Search period start: 30 August 2014 00:00
Search period end: 09 September 2014 00:00
Orbit: 522 x 536 km, 97.5° (Epoch: 29 August)

Date Brightness Start Highest point End Pass type
(mag) Time Alt. Az. Time Alt. Az. Time Alt. Az.
30 Aug 3.4 20:50:04 10° S 20:53:51 73° W 20:57:36 10° NNW visible
31 Aug 3.1 20:39:23 10° SSE 20:43:10 73° E 20:46:55 10° N visible
01 Sep 3.5 20:28:49 10° SSE 20:32:28 47° E 20:36:06 10° N visible
02 Sep 4.0 20:18:22 10° SE 20:21:45 31° E 20:25:07 10° NNE visible
03 Sep 6.6 21:44:09 10° WSW 21:45:03 11° WSW 21:45:57 10° W visible
04 Sep 6.2 21:31:57 10° SW 21:34:18 16° WSW 21:36:38 10° WNW visible
05 Sep 5.7 21:20:29 10° SSW 21:23:31 23° WSW 21:26:32 10° NW visible
06 Sep 4.9 21:09:16 10° SSW 21:12:43 34° WSW 21:16:09 10° NW visible
07 Sep 4.1 20:58:12 10° S 21:01:53 52° WSW 21:05:34 10° NNW visible
08 Sep 3.3 20:47:15 10° S 20:51:02 81° WSW 20:54:48 10° NNW visible
